Location: ČR
(50.0000°N, 15.0000°E)
Time: 20:51:47
(UTC+00:00)

Vanguard 3 - Pass Details

Date: 24 October 2021
Orbit: 508 x 3260 km, 33.4° (Epoch: 04 December)

Event Time Altitude Azimuth Distance (km) Brightness Sun altitude
Rises 17:56:52 0° 243° (WSW) 3,761 11.5 -20.8°
Reaches altitude 10° 17:59:28 10° 232° (SW) 3,111 10.7 -21.2°
Maximum altitude 18:06:08 29° 175° (S) 2,681 9.6 -22.3°
Enters shadow 18:11:33 21° 138° (SE) 3,674 10.0 -23.2°
Drops below altitude 10° 18:16:27 10° 124° (ESE) 4,940 - -24.0°
Sets 18:21:57 0° 115° (ESE) 6,402 - -24.8°
